Guymon, OK

3:41 PM CDT on May 25, 2017 (GMT -0500)
Guymon Municipal

Weather History for KGUY - August, 2013

Change the Weather History Date:

Friday, August 9, 2013

  Actual Average Record
Temperature  
Mean Temperature 69 °F 79 °F  
Max Temperature 73 °F 92 °F 104 °F (2007)
Min Temperature 64 °F 66 °F 62 °F (2014)
Degree Days  
Heating Degree Days 0 0  
Month to date heating degree days 0 0  
Since 1 June heating degree days 0 8  
Since 1 July heating degree days 0 0  
Cooling Degree Days 4 14  
Month to date cooling degree days 143 127  
Year to date cooling degree days 1256 969  
Since 1 June cooling degree days 1052 861  
Growing Degree Days 18 (Base 50)    
Moisture  
Dew Point 62 °F    
Average Humidity 82    
Maximum Humidity 93    
Minimum Humidity 70    
Precipitation  
Precipitation T in 0.10 in 0.54 in (2000)
Month to date precipitation 2.39 0.75  
Year to date precipitation 8.74 12.60  
Snow  
Snow 0.00 in - - ()
Month to date snowfall 0.0  
Since 1 June snowfall T  
Since 1 July snowfall 0.0  
Snow Depth 0.00 in    
Sea Level Pressure  
Sea Level Pressure 30.06 in    
Wind  
Wind Speed 10 mph (NNE)    
Max Wind Speed 17 mph    
Max Gust Speed 21 mph    
Visibility 10 miles    
Events Rain    
T = Trace of Precipitation, MM = Missing Value Source: NWS Daily Summary

Daily Weather History Graph

Daily Weather History Graph

Search for Another Location

Airport or City:

Trip Planner

Search our weather history database for the weather conditions in past years. The results will help you decide how hot, cold, wet, or windy it might be!

Date:

Astronomy

Aug. 09, 2013 Rise Set
Actual Time 6:58 AM CDT 8:43 PM CDT
Civil Twilight 6:30 AM CDT 9:11 PM CDT
Nautical Twilight 5:56 AM CDT 9:45 PM CDT
Astronomical Twilight 5:21 AM CDT 10:20 PM CDT
Moon 9:40 AM CDT (8/9) 10:01 PM CDT (8/9)
Length of Visible Light 14h 40m
Length of Day
13h 45m
Waxing Crescent, 8% of the Moon is Illuminated
Aug 9
Waxing Crescent
Aug 14
First Quarter
Aug 20
Full
Aug 28
Last Quarter
Sep 5
New

Hourly Weather History & Observations

Time (CDT) Temp. Dew Point Humidity Pressure Visibility Wind Dir Wind Speed Gust Speed Precip Events Conditions
12:07 AM 68.0 °F 66.2 °F 94% 30.06 in 10.0 mi North 4.6 mph - 0.01 in Rain Light Rain
12:40 AM 68.0 °F 64.4 °F 88% 30.05 in 10.0 mi NE 9.2 mph - 0.03 in Rain Light Rain
12:53 AM 68.0 °F 66.0 °F 93% 29.92 in 10.0 mi NE 9.2 mph - 0.04 in Rain Light Rain
1:01 AM 68.0 °F 66.2 °F 94% 30.04 in 10.0 mi ENE 11.5 mph - 0.00 in Rain Light Rain
1:17 AM 68.0 °F 66.2 °F 94% 30.03 in 10.0 mi ENE 9.2 mph - 0.00 in   Overcast
1:53 AM 68.0 °F 64.9 °F 90% 29.93 in 10.0 mi NNE 11.5 mph - 0.00 in   Overcast
2:30 AM 66.2 °F 64.4 °F 94% 30.06 in 10.0 mi NE 9.2 mph - N/A   Overcast
2:45 AM 66.2 °F 64.4 °F 94% 30.06 in 10.0 mi NNE 10.4 mph - N/A   Overcast
2:53 AM 66.9 °F 64.0 °F 90% 29.94 in 10.0 mi NNE 9.2 mph - N/A   Overcast
3:27 AM 66.2 °F 62.6 °F 88% 30.06 in 10.0 mi NNE 8.1 mph - N/A   Overcast
3:53 AM 66.0 °F 64.0 °F 93% 29.94 in 10.0 mi North 9.2 mph - N/A   Overcast
4:53 AM 64.9 °F 63.0 °F 93% 29.95 in 10.0 mi North 11.5 mph - N/A   Overcast
5:39 AM 64.4 °F 60.8 °F 88% 30.08 in 10.0 mi North 10.4 mph - N/A   Overcast
5:53 AM 64.0 °F 62.1 °F 93% 29.96 in 10.0 mi North 8.1 mph - N/A   Overcast
6:01 AM 64.4 °F 62.6 °F 94% 30.08 in 10.0 mi North 10.4 mph - N/A   Overcast
6:31 AM 64.4 °F 60.8 °F 88% 30.08 in 10.0 mi NNW 11.5 mph - N/A   Overcast
6:53 AM 64.0 °F 61.0 °F 90% 29.96 in 10.0 mi NNW 8.1 mph - N/A   Overcast
7:53 AM 64.0 °F 60.1 °F 87% 29.98 in 10.0 mi North 12.7 mph - N/A   Overcast
8:17 AM 64.4 °F 60.8 °F 88% 30.10 in 10.0 mi North 13.8 mph - N/A   Overcast
8:53 AM 64.9 °F 61.0 °F 87% 30.01 in 10.0 mi North 11.5 mph - N/A   Overcast
9:53 AM 66.0 °F 61.0 °F 84% 30.03 in 10.0 mi North 13.8 mph - N/A   Overcast
10:11 AM 66.2 °F 60.8 °F 83% 30.14 in 10.0 mi North 12.7 mph - N/A   Overcast
10:18 AM 66.2 °F 60.8 °F 83% 30.14 in 10.0 mi North 13.8 mph - N/A   Overcast
10:27 AM 66.2 °F 60.8 °F 83% 30.15 in 10.0 mi North 12.7 mph - N/A   Overcast
10:53 AM 66.9 °F 61.0 °F 81% 30.04 in 10.0 mi North 16.1 mph - N/A   Overcast
11:50 AM 68.0 °F 62.6 °F 83% 30.16 in 10.0 mi North 13.8 mph - N/A   Overcast
11:53 AM 68.0 °F 62.1 °F 81% 30.06 in 10.0 mi North 15.0 mph - N/A   Overcast
12:53 PM 69.1 °F 61.0 °F 75% 30.06 in 10.0 mi North 15.0 mph - N/A   Overcast
1:53 PM 70.0 °F 61.0 °F 73% 30.06 in 10.0 mi North 13.8 mph - N/A   Overcast
2:53 PM 69.1 °F 59.0 °F 70% 30.08 in 10.0 mi NNE 10.4 mph - N/A   Overcast
3:53 PM 70.0 °F 59.0 °F 68% 30.08 in 10.0 mi NNE 12.7 mph - N/A   Overcast
4:53 PM 70.0 °F 60.1 °F 71% 30.06 in 10.0 mi North 12.7 mph 18.4 mph N/A   Overcast
5:04 PM 71.6 °F 60.8 °F 69% 30.17 in 10.0 mi NE 10.4 mph - N/A   Overcast
5:32 PM 71.6 °F 60.8 °F 69% 30.16 in 10.0 mi NNE 9.2 mph - N/A   Mostly Cloudy
5:53 PM 70.0 °F 60.1 °F 71% 30.06 in 10.0 mi NE 11.5 mph - N/A   Mostly Cloudy
6:53 PM 70.0 °F 59.0 °F 68% 30.05 in 10.0 mi North 9.2 mph - N/A   Overcast
7:53 PM 69.1 °F 60.1 °F 73% 30.05 in 10.0 mi ENE 8.1 mph - N/A   Overcast
8:53 PM 66.9 °F 60.1 °F 79% 30.08 in 10.0 mi ENE 5.8 mph - N/A   Overcast
9:53 PM 66.9 °F 61.0 °F 81% 30.11 in 10.0 mi NE 5.8 mph - N/A   Overcast
10:53 PM 66.9 °F 61.0 °F 81% 30.12 in 10.0 mi North 4.6 mph - N/A   Overcast
11:53 PM 66.0 °F 62.1 °F 87% 30.14 in 10.0 mi Calm Calm - N/A   Overcast